Starlink 5296

operational
NORAD ID: 55312 Int'l Des: 2023-010 Owner: SPXS Country: US Constellation: starlink
LEOCIRCULAR

Starlink 5296について

説明を読み込み中...

リアルタイム位置

3D地球を読み込み中...

次回通過

高度履歴

Altitude vs Time

uPlot chart will show altitude changes over time

軌道要素

1 55312U 23010AV 26072.58334491 .00051706 00000-0 43119-2 0 9995
2 55312 70.0021 354.4598 0002907 269.0505 218.4532 14.98307353 5767
Epoch: Mar 13, 2026 • Age: 62 hours

現在のステータス

高度 583.0 km
速度 7.57 km/s
衛星直下点 -35.48°S, 154.1°E
打ち上げ日 Jan 19, 2023
運用期間 3.1 years
タイプ internet

技術仕様

分類 Payload
質量 305.00 kg
乾燥質量 290.00 kg
総質量 305.00 kg
長さ 0.20 m
直径 2.80 m
スパン 9.00 m
形状 Box + pan
製造者 SPXS
バスタイプ Starlink
フェーズステータス In Orbit
所有者/国 SPXS/US

大規模コンステレーション

Loading constellations...